This is the latest recevied weather packets stored in our database for station/object KC8QDR-1. If no packets are shown the sender has not sent any weather packets the latest 1 day(s).
| Time | Temp. | Humidity | Pressure | Rain* | Wind** | Luminosity | Snow |
|---|---|---|---|---|---|---|---|
| 1778030925 | 10.56° C | 96% | 1014.3 hPa | 2.54 mm | 0.89 m/s, 4° | - | - |
| 1778030325 | 10.56° C | 96% | 1014.3 hPa | 2.54 mm | 1.34 m/s, 359° | - | - |
| 1778029725 | 10.56° C | 96% | 1014.6 hPa | 2.79 mm | 2.24 m/s, 18° | - | - |
| 1778029125 | 11.11° C | 96% | 1014.9 hPa | 5.08 mm | 1.34 m/s, 351° | - | - |
| 1778028524 | 11.11° C | 96% | 1015.4 hPa | 6.86 mm | 1.79 m/s, 0° | - | - |
| 1778028004 | 11.11° C | 96% | 1015.8 hPa | 6.35 mm | 1.79 m/s, 15° | - | - |
| 1778027925 | 11.11° C | 96% | 1015.8 hPa | 6.35 mm | 1.79 m/s, 15° | - | - |
| 1778027325 | 11.67° C | 95% | 1016 hPa | 5.33 mm | 2.68 m/s, 9° | - | - |
| 1778026725 | 11.67° C | 95% | 1015.8 hPa | 4.57 mm | 1.79 m/s, 351° | - | - |
| 1778026134 | 11.67° C | 95% | 1016 hPa | 4.32 mm | 0.89 m/s, 14° | - | - |
| 1778025627 | 12.22° C | 95% | 1016.1 hPa | 1.78 mm | 4.02 m/s, 1° | - | - |
| 1778025525 | 12.22° C | 95% | 1016.1 hPa | 1.78 mm | 4.02 m/s, 1° | - | - |
| 1778024925 | 12.78° C | 92% | 1015.9 hPa | 0.25 mm | 1.34 m/s, 359° | - | - |
| 1778024327 | 13.89° C | 92% | 1015.7 hPa | 0 mm | 4.47 m/s, 343° | - | - |
| 1778023125 | 14.44° C | 92% | 1015.8 hPa | 0 mm | 2.68 m/s, 352° | - | - |
| 1778022525 | 15° C | 91% | 1015.8 hPa | 0 mm | 2.24 m/s, 341° | - | - |
| 1778021925 | 15° C | 90% | 1015.9 hPa | 0 mm | 0.89 m/s, 319° | - | - |
| 1778021325 | 15° C | 90% | 1016.2 hPa | 0 mm | 2.24 m/s, 26° | - | - |
| 1778020801 | 15° C | 89% | 1016.6 hPa | 0 mm | 1.34 m/s, 2° | - | - |
| 1778020725 | 15° C | 89% | 1016.6 hPa | 0 mm | 1.34 m/s, 2° | - | - |
| 1778020125 | 15° C | 89% | 1016.8 hPa | 0 mm | 0.89 m/s, 350° | - | - |
| 1778019525 | 15.56° C | 88% | 1016.9 hPa | 0 mm | 1.79 m/s, 9° | - | - |
| 1778018924 | 15.56° C | 88% | 1017.1 hPa | 0 mm | 0 m/s | - | - |
| 1778018325 | 16.11° C | 88% | 1017.3 hPa | 0 mm | 4.47 m/s, 337° | - | - |
| 1778017725 | 16.11° C | 87% | 1016.8 hPa | 0 mm | 2.24 m/s, 348° | - | - |
* Rain latest hour (hover to see other rain measurements)
** Current wind speed in m/s (hover to see current wind gust speed)